Time,TemperatureF,DewpointF,PressureIn,WindDirection,WindDirectionDegrees,WindSpeedMPH,WindSpeedGustMPH,Humidity,HourlyPrecipIn,Conditions,Clouds,dailyrainin,SolarRadiationWatts/m^2,SoftwareType,DateUTC
2013-07-07 00:10:00,55.8,53.8,29.83,WSW,245,10.0,11.0,93,0.00,,,0.00,0,Wunderground v.1.15,2013-07-07 07:10:00,
2013-07-07 00:20:00,55.9,53.9,29.83,West,262,10.0,10.0,93,0.00,,,0.00,0,Wunderground v.1.15,2013-07-07 07:20:00,
2013-07-07 00:30:00,55.9,53.9,29.83,WSW,250,10.0,12.0,93,0.00,,,0.00,0,Wunderground v.1.15,2013-07-07 07:30:00,
2013-07-07 00:35:00,55.9,53.9,29.83,WSW,247,10.0,13.0,93,0.00,,,0.00,0,Wunderground v.1.15,2013-07-07 07:35:00,
2013-07-07 00:45:00,56.0,54.0,29.83,West,267,11.0,15.0,93,0.00,,,0.00,0,Wunderground v.1.15,2013-07-07 07:45:00,
2013-07-07 00:50:00,56.0,54.0,29.83,West,277,12.0,13.0,93,0.00,,,0.00,0,Wunderground v.1.15,2013-07-07 07:50:00,
2013-07-07 01:00:00,56.1,54.1,29.83,West,262,12.0,12.0,93,0.00,,,0.00,0,Wunderground v.1.15,2013-07-07 08:00:00,
2013-07-07 01:05:00,56.1,54.1,29.83,West,259,12.0,12.0,93,0.00,,,0.00,0,Wunderground v.1.15,2013-07-07 08:05:00,
2013-07-07 01:15:00,56.1,54.1,29.83,West,261,13.0,13.0,93,0.00,,,0.00,0,Wunderground v.1.15,2013-07-07 08:15:00,
2013-07-07 01:20:00,56.0,54.0,29.83,West,266,13.0,13.0,93,0.00,,,0.00,0,Wunderground v.1.15,2013-07-07 08:20:00,
2013-07-07 01:25:00,56.1,54.1,29.83,WSW,258,12.0,13.0,93,0.00,,,0.00,0,Wunderground v.1.15,2013-07-07 08:25:00,
2013-07-07 01:30:00,56.1,54.1,29.83,WSW,249,11.0,11.0,93,0.00,,,0.00,0,Wunderground v.1.15,2013-07-07 08:30:00,
2013-07-07 01:40:00,56.2,54.2,29.83,WSW,249,10.0,13.0,93,0.00,,,0.00,0,Wunderground v.1.15,2013-07-07 08:40:00,
2013-07-07 01:45:00,56.2,54.2,29.83,West,261,11.0,13.0,93,0.00,,,0.00,0,Wunderground v.1.15,2013-07-07 08:45:00,
2013-07-07 01:50:00,56.3,54.3,29.83,West,272,10.0,10.0,93,0.00,,,0.00,0,Wunderground v.1.15,2013-07-07 08:50:00,
2013-07-07 02:00:00,56.4,54.4,29.83,WSW,258,7.0,11.0,93,0.00,,,0.00,0,Wunderground v.1.15,2013-07-07 09:00:00,
2013-07-07 02:05:00,56.3,54.0,29.83,WSW,256,9.0,11.0,92,0.00,,,0.00,0,Wunderground v.1.15,2013-07-07 09:05:00,
2013-07-07 02:15:00,56.0,53.7,29.83,WSW,250,11.0,13.0,92,0.00,,,0.00,0,Wunderground v.1.15,2013-07-07 09:15:00,
2013-07-07 02:20:00,55.9,53.6,29.83,West,278,12.0,14.0,92,0.00,,,0.00,0,Wunderground v.1.15,2013-07-07 09:20:00,
2013-07-07 02:25:00,55.9,53.6,29.83,WSW,255,11.0,14.0,92,0.00,,,0.00,0,Wunderground v.1.15,2013-07-07 09:25:00,
2013-07-07 02:35:00,55.9,53.6,29.83,West,265,12.0,12.0,92,0.00,,,0.00,0,Wunderground v.1.15,2013-07-07 09:35:00,
2013-07-07 02:40:00,56.1,53.8,29.83,West,263,11.0,11.0,92,0.00,,,0.00,0,Wunderground v.1.15,2013-07-07 09:40:00,
2013-07-07 02:45:00,56.1,53.8,29.83,West,272,10.0,11.0,92,0.00,,,0.00,0,Wunderground v.1.15,2013-07-07 09:45:00,
2013-07-07 02:55:00,56.2,53.9,29.83,West,267,10.0,12.0,92,0.00,,,0.00,0,Wunderground v.1.15,2013-07-07 09:55:00,
2013-07-07 03:00:00,56.2,53.9,29.83,West,266,10.0,10.0,92,0.00,,,0.00,0,Wunderground v.1.15,2013-07-07 10:00:00,
2013-07-07 03:05:00,56.2,53.9,29.83,WNW,291,10.0,10.0,92,0.00,,,0.00,0,Wunderground v.1.15,2013-07-07 10:05:00,
2013-07-07 03:15:00,56.2,53.9,29.83,WSW,255,10.0,10.0,92,0.00,,,0.00,0,Wunderground v.1.15,2013-07-07 10:15:00,
2013-07-07 03:25:00,56.2,53.6,29.83,West,268,11.0,11.0,91,0.00,,,0.00,0,Wunderground v.1.15,2013-07-07 10:25:00,
2013-07-07 03:30:00,56.3,54.0,29.83,West,259,11.0,11.0,92,0.00,,,0.00,0,Wunderground v.1.15,2013-07-07 10:30:00,
2013-07-07 03:35:00,56.2,53.9,29.83,WSW,247,11.0,11.0,92,0.00,,,0.00,0,Wunderground v.1.15,2013-07-07 10:35:00,
2013-07-07 03:45:00,56.2,53.9,29.83,West,259,10.0,10.0,92,0.00,,,0.00,0,Wunderground v.1.15,2013-07-07 10:45:00,
2013-07-07 03:50:00,56.0,53.4,29.83,WSW,258,10.0,10.0,91,0.00,,,0.00,0,Wunderground v.1.15,2013-07-07 10:50:00,
2013-07-07 03:55:00,56.1,53.8,29.83,West,264,10.0,10.0,92,0.00,,,0.00,0,Wunderground v.1.15,2013-07-07 10:55:00,
2013-07-07 04:05:00,56.1,53.8,29.83,West,261,10.0,13.0,92,0.00,,,0.00,0,Wunderground v.1.15,2013-07-07 11:05:00,
2013-07-07 04:10:00,56.1,53.8,29.83,West,262,11.0,11.0,92,0.00,,,0.00,0,Wunderground v.1.15,2013-07-07 11:10:00,
2013-07-07 04:20:00,55.8,53.2,29.84,West,267,12.0,12.0,91,0.00,,,0.00,0,Wunderground v.1.15,2013-07-07 11:20:00,
2013-07-07 04:25:00,55.6,53.0,29.84,WNW,284,13.0,13.0,91,0.00,,,0.00,0,Wunderground v.1.15,2013-07-07 11:25:00,
2013-07-07 04:30:00,55.7,53.1,29.84,West,259,12.0,12.0,91,0.00,,,0.00,0,Wunderground v.1.15,2013-07-07 11:30:00,
2013-07-07 04:40:00,55.7,53.1,29.84,West,263,11.0,11.0,91,0.00,,,0.00,0,Wunderground v.1.15,2013-07-07 11:40:00,
2013-07-07 04:45:00,55.7,53.1,29.84,West,263,10.0,11.0,91,0.00,,,0.00,0,Wunderground v.1.15,2013-07-07 11:45:00,
2013-07-07 04:55:00,55.8,53.2,29.84,WSW,253,10.0,10.0,91,0.00,,,0.00,0,Wunderground v.1.15,2013-07-07 11:55:00,
2013-07-07 05:00:00,55.8,53.2,29.84,West,280,11.0,11.0,91,0.00,,,0.00,0,Wunderground v.1.15,2013-07-07 12:00:00,
2013-07-07 05:05:00,55.8,53.2,29.84,West,260,10.0,12.0,91,0.00,,,0.00,0,Wunderground v.1.15,2013-07-07 12:05:00,
2013-07-07 05:15:00,55.9,53.3,29.84,West,274,11.0,11.0,91,0.00,,,0.00,0,Wunderground v.1.15,2013-07-07 12:15:00,
2013-07-07 05:20:00,56.0,53.4,29.84,WNW,298,10.0,10.0,91,0.00,,,0.00,0,Wunderground v.1.15,2013-07-07 12:20:00,
2013-07-07 05:30:00,56.0,53.4,29.84,West,275,10.0,14.0,91,0.00,,,0.00,0,Wunderground v.1.15,2013-07-07 12:30:00,
2013-07-07 05:35:00,55.9,53.3,29.84,West,275,10.0,14.0,91,0.00,,,0.00,0,Wunderground v.1.15,2013-07-07 12:35:00,
2013-07-07 05:40:00,55.9,53.3,29.84,West,266,9.0,9.0,91,0.00,,,0.00,0,Wunderground v.1.15,2013-07-07 12:40:00,
2013-07-07 05:50:00,55.9,53.3,29.85,WNW,291,10.0,14.0,91,0.00,,,0.00,0,Wunderground v.1.15,2013-07-07 12:50:00,
2013-07-07 05:55:00,56.0,53.4,29.85,West,268,11.0,14.0,91,0.00,,,0.00,0,Wunderground v.1.15,2013-07-07 12:55:00,
2013-07-07 06:05:00,56.1,53.5,29.85,WNW,290,9.0,11.0,91,0.00,,,0.00,0,Wunderground v.1.15,2013-07-07 13:05:00,
2013-07-07 06:15:00,56.0,53.4,29.85,NW,307,9.0,12.0,91,0.00,,,0.00,7,Wunderground v.1.15,2013-07-07 13:15:00,
2013-07-07 06:25:00,56.3,53.4,29.85,WNW,295,9.0,10.0,90,0.00,,,0.00,14,Wunderground v.1.15,2013-07-07 13:25:00,
2013-07-07 06:30:00,56.4,53.5,29.85,West,272,10.0,11.0,90,0.00,,,0.00,18,Wunderground v.1.15,2013-07-07 13:30:00,
2013-07-07 06:40:00,56.6,54.0,29.85,West,281,8.0,8.0,91,0.00,,,0.00,25,Wunderground v.1.15,2013-07-07 13:40:00,
2013-07-07 06:45:00,56.7,54.1,29.85,WNW,294,8.0,8.0,91,0.00,,,0.00,28,Wunderground v.1.15,2013-07-07 13:45:00,
2013-07-07 06:50:00,56.7,53.8,29.86,WNW,284,9.0,9.0,90,0.00,,,0.00,30,Wunderground v.1.15,2013-07-07 13:50:00,
2013-07-07 07:00:00,56.9,54.0,29.86,NW,305,7.0,8.0,90,0.00,,,0.00,42,Wunderground v.1.15,2013-07-07 14:00:00,
2013-07-07 07:05:00,56.8,53.9,29.86,WNW,297,6.0,8.0,90,0.00,,,0.00,42,Wunderground v.1.15,2013-07-07 14:05:00,
2013-07-07 07:15:00,57.0,54.1,29.86,West,280,7.0,7.0,90,0.00,,,0.00,51,Wunderground v.1.15,2013-07-07 14:15:00,
2013-07-07 07:20:00,57.0,54.1,29.86,WNW,289,8.0,8.0,90,0.00,,,0.00,58,Wunderground v.1.15,2013-07-07 14:20:00,
2013-07-07 07:30:00,57.0,54.1,29.86,West,270,8.0,9.0,90,0.00,,,0.00,70,Wunderground v.1.15,2013-07-07 14:30:00,
2013-07-07 07:35:00,56.9,54.0,29.87,West,272,8.0,9.0,90,0.00,,,0.00,76,Wunderground v.1.15,2013-07-07 14:35:00,
2013-07-07 07:40:00,56.9,54.0,29.87,WNW,300,9.0,9.0,90,0.00,,,0.00,81,Wunderground v.1.15,2013-07-07 14:40:00,
2013-07-07 07:50:00,57.1,54.2,29.87,West,270,8.0,8.0,90,0.00,,,0.00,88,Wunderground v.1.15,2013-07-07 14:50:00,
2013-07-07 07:55:00,57.0,54.1,29.87,WNW,282,8.0,8.0,90,0.00,,,0.00,93,Wunderground v.1.15,2013-07-07 14:55:00,
2013-07-07 08:00:00,57.1,54.2,29.87,WNW,287,9.0,9.0,90,0.00,,,0.00,102,Wunderground v.1.15,2013-07-07 15:00:00,
2013-07-07 08:10:00,57.0,54.1,29.88,WNW,294,9.0,11.0,90,0.00,,,0.00,116,Wunderground v.1.15,2013-07-07 15:10:00,
2013-07-07 08:15:00,57.1,54.2,29.88,West,272,8.0,11.0,90,0.00,,,0.00,121,Wunderground v.1.15,2013-07-07 15:15:00,
2013-07-07 08:25:00,56.9,54.0,29.88,West,272,10.0,11.0,90,0.00,,,0.00,139,Wunderground v.1.15,2013-07-07 15:25:00,
2013-07-07 08:30:00,57.1,54.2,29.88,West,279,9.0,9.0,90,0.00,,,0.00,146,Wunderground v.1.15,2013-07-07 15:30:00,
2013-07-07 08:35:00,56.8,53.9,29.88,West,277,8.0,9.0,90,0.00,,,0.00,153,Wunderground v.1.15,2013-07-07 15:35:00,
2013-07-07 08:45:00,57.0,54.1,29.89,WNW,282,9.0,10.0,90,0.00,,,0.00,163,Wunderground v.1.15,2013-07-07 15:45:00,
2013-07-07 08:50:00,56.9,54.0,29.89,WNW,285,9.0,9.0,90,0.00,,,0.00,171,Wunderground v.1.15,2013-07-07 15:50:00,
2013-07-07 08:55:00,56.9,53.7,29.89,WNW,294,9.0,9.0,89,0.00,,,0.00,179,Wunderground v.1.15,2013-07-07 15:55:00,
2013-07-07 09:05:00,57.1,53.9,29.89,WNW,287,8.0,11.0,89,0.00,,,0.00,192,Wunderground v.1.15,2013-07-07 16:05:00,
2013-07-07 09:15:00,57.1,53.9,29.89,WNW,286,8.0,12.0,89,0.00,,,0.00,221,Wunderground v.1.15,2013-07-07 16:15:00,
2013-07-07 09:20:00,57.1,53.9,29.89,WNW,291,9.0,9.0,89,0.00,,,0.00,223,Wunderground v.1.15,2013-07-07 16:20:00,
2013-07-07 09:25:00,57.1,53.9,29.89,West,273,8.0,9.0,89,0.00,,,0.00,255,Wunderground v.1.15,2013-07-07 16:25:00,
2013-07-07 09:35:00,57.3,54.1,29.89,West,277,7.0,8.0,89,0.00,,,0.00,283,Wunderground v.1.15,2013-07-07 16:35:00,
2013-07-07 09:40:00,57.2,53.7,29.89,WNW,286,7.0,7.0,88,0.00,,,0.00,267,Wunderground v.1.15,2013-07-07 16:40:00,
2013-07-07 09:50:00,57.3,53.8,29.88,WNW,283,7.0,9.0,88,0.00,,,0.00,308,Wunderground v.1.15,2013-07-07 16:50:00,
2013-07-07 10:00:00,57.6,54.1,29.88,WNW,287,7.0,10.0,88,0.00,,,0.00,320,Wunderground v.1.15,2013-07-07 17:00:00,
2013-07-07 10:05:00,57.6,54.1,29.88,WNW,297,8.0,10.0,88,0.00,,,0.00,315,Wunderground v.1.15,2013-07-07 17:05:00,
2013-07-07 10:15:00,58.0,54.8,29.88,West,267,8.0,8.0,89,0.00,,,0.00,322,Wunderground v.1.15,2013-07-07 17:15:00,
2013-07-07 10:20:00,58.3,54.4,29.88,West,264,7.0,8.0,87,0.00,,,0.00,341,Wunderground v.1.15,2013-07-07 17:20:00,
2013-07-07 10:30:00,57.9,54.4,29.88,West,268,8.0,8.0,88,0.00,,,0.00,366,Wunderground v.1.15,2013-07-07 17:30:00,
2013-07-07 10:35:00,58.1,54.6,29.88,West,272,7.0,9.0,88,0.00,,,0.00,401,Wunderground v.1.15,2013-07-07 17:35:00,
2013-07-07 10:40:00,58.4,54.9,29.88,West,278,7.0,7.0,88,0.00,,,0.00,399,Wunderground v.1.15,2013-07-07 17:40:00,
2013-07-07 10:50:00,58.3,54.4,29.89,WSW,251,7.0,7.0,87,0.00,,,0.00,448,Wunderground v.1.15,2013-07-07 17:50:00,
2013-07-07 10:55:00,58.4,54.5,29.89,West,263,7.0,8.0,87,0.00,,,0.00,487,Wunderground v.1.15,2013-07-07 17:55:00,
2013-07-07 11:05:00,58.7,54.5,29.89,SSW,213,5.0,6.0,86,0.00,,,0.00,854,Wunderground v.1.15,2013-07-07 18:05:00,
2013-07-07 11:10:00,58.9,54.4,29.89,WSW,257,5.0,5.0,85,0.00,,,0.00,882,Wunderground v.1.15,2013-07-07 18:10:00,
2013-07-07 11:20:00,59.5,55.0,29.89,SW,222,4.0,7.0,85,0.00,,,0.00,851,Wunderground v.1.15,2013-07-07 18:20:00,
2013-07-07 11:25:00,59.6,54.8,29.88,West,266,6.0,7.0,84,0.00,,,0.00,851,Wunderground v.1.15,2013-07-07 18:25:00,
2013-07-07 11:30:00,59.6,54.8,29.88,WSW,245,6.0,7.0,84,0.00,,,0.00,863,Wunderground v.1.15,2013-07-07 18:30:00,
2013-07-07 11:40:00,60.0,54.8,29.88,SSW,213,6.0,6.0,83,0.00,,,0.00,879,Wunderground v.1.15,2013-07-07 18:40:00,
2013-07-07 11:45:00,59.9,55.1,29.88,WSW,247,5.0,7.0,84,0.00,,,0.00,889,Wunderground v.1.15,2013-07-07 18:45:00,
2013-07-07 11:55:00,60.1,54.9,29.88,WSW,241,5.0,9.0,83,0.00,,,0.00,905,Wunderground v.1.15,2013-07-07 18:55:00,
2013-07-07 12:00:00,60.2,55.0,29.88,SSW,213,6.0,6.0,83,0.00,,,0.00,911,Wunderground v.1.15,2013-07-07 19:00:00,
2013-07-07 12:05:00,60.3,55.1,29.88,WSW,246,6.0,7.0,83,0.00,,,0.00,918,Wunderground v.1.15,2013-07-07 19:05:00,
2013-07-07 12:10:00,60.4,55.2,29.88,SSW,213,6.0,6.0,83,0.00,,,0.00,923,Wunderground v.1.15,2013-07-07 19:10:00,
2013-07-07 12:20:00,60.9,56.0,29.88,SSW,213,7.0,9.0,84,0.00,,,0.00,937,Wunderground v.1.15,2013-07-07 19:20:00,
2013-07-07 12:30:00,61.1,55.9,29.88,SSW,213,7.0,11.0,83,0.00,,,0.00,947,Wunderground v.1.15,2013-07-07 19:30:00,
2013-07-07 12:35:00,60.8,55.6,29.88,WSW,255,8.0,11.0,83,0.00,,,0.00,953,Wunderground v.1.15,2013-07-07 19:35:00,
2013-07-07 12:40:00,60.9,56.0,29.88,WSW,244,9.0,9.0,84,0.00,,,0.00,958,Wunderground v.1.15,2013-07-07 19:40:00,
2013-07-07 12:45:00,61.0,56.1,29.87,SSW,213,9.0,9.0,84,0.00,,,0.00,962,Wunderground v.1.15,2013-07-07 19:45:00,
2013-07-07 12:55:00,61.2,56.0,29.87,SSW,213,8.0,9.0,83,0.00,,,0.00,969,Wunderground v.1.15,2013-07-07 19:55:00,
2013-07-07 13:00:00,61.1,55.9,29.87,SW,227,8.0,10.0,83,0.00,,,0.00,972,Wunderground v.1.15,2013-07-07 20:00:00,
2013-07-07 13:10:00,60.8,55.9,29.86,WSW,253,10.0,11.0,84,0.00,,,0.00,976,Wunderground v.1.15,2013-07-07 20:10:00,
2013-07-07 13:15:00,60.8,55.9,29.86,West,266,10.0,11.0,84,0.00,,,0.00,977,Wunderground v.1.15,2013-07-07 20:15:00,
2013-07-07 13:25:00,61.1,56.2,29.86,WSW,245,10.0,11.0,84,0.00,,,0.00,979,Wunderground v.1.15,2013-07-07 20:25:00,
2013-07-07 13:30:00,61.2,56.3,29.86,West,259,10.0,10.0,84,0.00,,,0.00,981,Wunderground v.1.15,2013-07-07 20:30:00,
2013-07-07 13:35:00,61.0,56.1,29.86,WSW,247,10.0,10.0,84,0.00,,,0.00,977,Wunderground v.1.15,2013-07-07 20:35:00,
2013-07-07 13:45:00,61.3,56.1,29.86,WSW,255,10.0,12.0,83,0.00,,,0.00,979,Wunderground v.1.15,2013-07-07 20:45:00,
2013-07-07 13:50:00,61.2,56.0,29.86,WSW,246,11.0,13.0,83,0.00,,,0.00,979,Wunderground v.1.15,2013-07-07 20:50:00,
2013-07-07 13:55:00,61.4,56.2,29.86,SSW,213,10.0,13.0,83,0.00,,,0.00,977,Wunderground v.1.15,2013-07-07 20:55:00,
2013-07-07 14:05:00,61.6,56.4,29.85,SSW,213,10.0,13.0,83,0.00,,,0.00,974,Wunderground v.1.15,2013-07-07 21:05:00,
2013-07-07 14:10:00,61.6,56.4,29.85,WSW,249,11.0,13.0,83,0.00,,,0.00,970,Wunderground v.1.15,2013-07-07 21:10:00,
2013-07-07 14:20:00,61.5,56.3,29.85,WSW,253,11.0,11.0,83,0.00,,,0.00,963,Wunderground v.1.15,2013-07-07 21:20:00,
2013-07-07 14:25:00,61.4,56.2,29.85,SSW,213,10.0,14.0,83,0.00,,,0.00,960,Wunderground v.1.15,2013-07-07 21:25:00,
2013-07-07 14:30:00,61.5,56.6,29.85,West,260,11.0,11.0,84,0.00,,,0.00,954,Wunderground v.1.15,2013-07-07 21:30:00,
2013-07-07 14:40:00,61.4,56.2,29.85,SW,229,11.0,11.0,83,0.00,,,0.00,946,Wunderground v.1.15,2013-07-07 21:40:00,
2013-07-07 14:45:00,61.4,56.5,29.85,SSW,213,11.0,12.0,84,0.00,,,0.00,939,Wunderground v.1.15,2013-07-07 21:45:00,
2013-07-07 14:55:00,61.2,56.3,29.85,WSW,255,11.0,14.0,84,0.00,,,0.00,926,Wunderground v.1.15,2013-07-07 21:55:00,
2013-07-07 15:00:00,61.2,56.3,29.85,SSW,213,11.0,12.0,84,0.00,,,0.00,919,Wunderground v.1.15,2013-07-07 22:00:00,
2013-07-07 15:05:00,61.3,56.4,29.85,WSW,255,11.0,12.0,84,0.00,,,0.00,912,Wunderground v.1.15,2013-07-07 22:05:00,
2013-07-07 15:15:00,61.1,56.6,29.85,West,262,11.0,11.0,85,0.00,,,0.00,900,Wunderground v.1.15,2013-07-07 22:15:00,
2013-07-07 15:25:00,61.3,56.8,29.85,WSW,249,10.0,13.0,85,0.00,,,0.00,884,Wunderground v.1.15,2013-07-07 22:25:00,
2013-07-07 15:35:00,60.9,56.4,29.85,SSW,213,11.0,11.0,85,0.00,,,0.00,865,Wunderground v.1.15,2013-07-07 22:35:00,
2013-07-07 15:45:00,61.3,56.4,29.85,WSW,247,10.0,12.0,84,0.00,,,0.00,846,Wunderground v.1.15,2013-07-07 22:45:00,
2013-07-07 15:55:00,60.8,56.3,29.85,West,268,12.0,12.0,85,0.00,,,0.00,824,Wunderground v.1.15,2013-07-07 22:55:00,
2013-07-07 16:00:00,61.0,56.5,29.85,WSW,244,12.0,12.0,85,0.00,,,0.00,816,Wunderground v.1.15,2013-07-07 23:00:00,
2013-07-07 16:10:00,61.3,56.4,29.84,West,262,10.0,10.0,84,0.00,,,0.00,793,Wunderground v.1.15,2013-07-07 23:10:00,
2013-07-07 16:15:00,61.3,56.4,29.84,WSW,242,9.0,14.0,84,0.00,,,0.00,780,Wunderground v.1.15,2013-07-07 23:15:00,
2013-07-07 16:20:00,61.1,56.2,29.84,SSW,213,10.0,10.0,84,0.00,,,0.00,768,Wunderground v.1.15,2013-07-07 23:20:00,
2013-07-07 16:30:00,60.9,56.4,29.84,SSW,213,11.0,11.0,85,0.00,,,0.00,745,Wunderground v.1.15,2013-07-07 23:30:00,
2013-07-07 16:35:00,60.8,56.3,29.84,WSW,239,11.0,14.0,85,0.00,,,0.00,733,Wunderground v.1.15,2013-07-07 23:35:00,
2013-07-07 16:45:00,61.1,56.6,29.84,SSW,213,10.0,12.0,85,0.00,,,0.00,707,Wunderground v.1.15,2013-07-07 23:45:00,
2013-07-07 16:50:00,60.8,56.3,29.84,SSW,213,10.0,16.0,85,0.00,,,0.00,694,Wunderground v.1.15,2013-07-07 23:50:00,
2013-07-07 17:00:00,61.1,56.6,29.83,West,263,10.0,10.0,85,0.00,,,0.00,666,Wunderground v.1.15,2013-07-08 00:00:00,
2013-07-07 17:05:00,61.1,56.6,29.83,West,262,9.0,10.0,85,0.00,,,0.00,652,Wunderground v.1.15,2013-07-08 00:05:00,
2013-07-07 17:15:00,61.4,56.5,29.83,SSW,213,8.0,9.0,84,0.00,,,0.00,624,Wunderground v.1.15,2013-07-08 00:15:00,
2013-07-07 17:20:00,61.5,56.6,29.83,SW,218,7.0,7.0,84,0.00,,,0.00,608,Wunderground v.1.15,2013-07-08 00:20:00,
2013-07-07 17:30:00,61.6,56.7,29.83,SW,230,6.0,10.0,84,0.00,,,0.00,578,Wunderground v.1.15,2013-07-08 00:30:00,
2013-07-07 17:35:00,61.4,56.5,29.83,WSW,251,7.0,10.0,84,0.00,,,0.00,563,Wunderground v.1.15,2013-07-08 00:35:00,
2013-07-07 17:45:00,60.7,56.2,29.83,SSW,213,9.0,9.0,85,0.00,,,0.00,533,Wunderground v.1.15,2013-07-08 00:45:00,
2013-07-07 17:50:00,60.7,56.2,29.83,WSW,241,9.0,9.0,85,0.00,,,0.00,517,Wunderground v.1.15,2013-07-08 00:50:00,
2013-07-07 17:55:00,61.0,56.5,29.83,SW,232,8.0,9.0,85,0.00,,,0.00,501,Wunderground v.1.15,2013-07-08 00:55:00,
2013-07-07 18:05:00,60.9,56.4,29.83,SSW,213,9.0,9.0,85,0.00,,,0.00,471,Wunderground v.1.15,2013-07-08 01:05:00,
2013-07-07 18:15:00,60.9,56.4,29.83,WSW,245,7.0,8.0,85,0.00,,,0.00,438,Wunderground v.1.15,2013-07-08 01:15:00,
2013-07-07 18:20:00,61.1,56.6,29.83,WSW,257,6.0,6.0,85,0.00,,,0.00,422,Wunderground v.1.15,2013-07-08 01:20:00,
2013-07-07 18:30:00,61.3,56.4,29.84,SW,225,5.0,8.0,84,0.00,,,0.00,388,Wunderground v.1.15,2013-07-08 01:30:00,
2013-07-07 18:40:00,61.1,56.6,29.84,SW,232,6.0,10.0,85,0.00,,,0.00,355,Wunderground v.1.15,2013-07-08 01:40:00,
2013-07-07 18:45:00,61.0,56.5,29.84,SW,230,7.0,10.0,85,0.00,,,0.00,341,Wunderground v.1.15,2013-07-08 01:45:00,
2013-07-07 18:50:00,60.8,56.3,29.84,SSW,213,6.0,6.0,85,0.00,,,0.00,325,Wunderground v.1.15,2013-07-08 01:50:00,
2013-07-07 19:00:00,60.9,56.4,29.84,SSW,213,5.0,5.0,85,0.00,,,0.00,288,Wunderground v.1.15,2013-07-08 02:00:00,
2013-07-07 19:05:00,60.9,56.0,29.84,WSW,257,4.0,6.0,84,0.00,,,0.00,271,Wunderground v.1.15,2013-07-08 02:05:00,
2013-07-07 19:15:00,60.7,56.2,29.84,WSW,239,4.0,8.0,85,0.00,,,0.00,234,Wunderground v.1.15,2013-07-08 02:15:00,
2013-07-07 19:25:00,60.3,56.1,29.84,SSW,213,6.0,7.0,86,0.00,,,0.00,195,Wunderground v.1.15,2013-07-08 02:25:00,
2013-07-07 19:30:00,60.2,56.0,29.84,SW,218,6.0,6.0,86,0.00,,,0.00,174,Wunderground v.1.15,2013-07-08 02:30:00,
2013-07-07 19:40:00,60.1,55.9,29.85,WSW,247,5.0,5.0,86,0.00,,,0.00,134,Wunderground v.1.15,2013-07-08 02:40:00,
2013-07-07 19:50:00,59.6,55.4,29.85,WSW,245,7.0,7.0,86,0.00,,,0.00,95,Wunderground v.1.15,2013-07-08 02:50:00,
2013-07-07 20:00:00,59.3,55.4,29.85,WSW,241,6.0,6.0,87,0.00,,,0.00,65,Wunderground v.1.15,2013-07-08 03:00:00,
2013-07-07 20:05:00,59.1,55.2,29.86,WSW,241,6.0,6.0,87,0.00,,,0.00,51,Wunderground v.1.15,2013-07-08 03:05:00,
2013-07-07 20:15:00,58.7,55.2,29.86,WSW,246,6.0,6.0,88,0.00,,,0.00,28,Wunderground v.1.15,2013-07-08 03:15:00,
2013-07-07 20:20:00,58.7,55.2,29.86,WSW,254,5.0,5.0,88,0.00,,,0.00,18,Wunderground v.1.15,2013-07-08 03:20:00,
2013-07-07 20:30:00,58.5,55.0,29.86,WSW,251,6.0,6.0,88,0.00,,,0.00,7,Wunderground v.1.15,2013-07-08 03:30:00,
2013-07-07 20:35:00,58.5,55.0,29.86,WSW,255,5.0,6.0,88,0.00,,,0.00,5,Wunderground v.1.15,2013-07-08 03:35:00,
2013-07-07 20:40:00,58.3,55.1,29.86,WSW,255,5.0,7.0,89,0.00,,,0.00,0,Wunderground v.1.15,2013-07-08 03:40:00,
2013-07-07 20:50:00,58.1,54.9,29.86,WSW,243,7.0,7.0,89,0.00,,,0.00,0,Wunderground v.1.15,2013-07-08 03:50:00,
2013-07-07 21:00:00,58.2,55.0,29.87,SW,224,6.0,6.0,89,0.00,,,0.00,0,Wunderground v.1.15,2013-07-08 04:00:00,
2013-07-07 21:05:00,58.1,54.9,29.87,West,262,5.0,8.0,89,0.00,,,0.00,0,Wunderground v.1.15,2013-07-08 04:05:00,
2013-07-07 21:10:00,58.0,54.8,29.87,WSW,254,6.0,6.0,89,0.00,,,0.00,0,Wunderground v.1.15,2013-07-08 04:10:00,
2013-07-07 21:15:00,58.0,54.8,29.88,WSW,254,7.0,7.0,89,0.00,,,0.00,0,Wunderground v.1.15,2013-07-08 04:15:00,
2013-07-07 21:25:00,57.9,54.7,29.88,West,269,8.0,8.0,89,0.00,,,0.00,0,Wunderground v.1.15,2013-07-08 04:25:00,
2013-07-07 21:35:00,57.8,54.6,29.88,WSW,249,7.0,7.0,89,0.00,,,0.00,0,Wunderground v.1.15,2013-07-08 04:35:00,
2013-07-07 21:45:00,57.8,54.6,29.89,WSW,246,7.0,10.0,89,0.00,,,0.00,0,Wunderground v.1.15,2013-07-08 04:45:00,
2013-07-07 21:50:00,57.8,54.9,29.89,WSW,258,8.0,8.0,90,0.00,,,0.00,0,Wunderground v.1.15,2013-07-08 04:50:00,
2013-07-07 21:55:00,57.8,54.9,29.89,WSW,253,8.0,8.0,90,0.00,,,0.00,0,Wunderground v.1.15,2013-07-08 04:55:00,
2013-07-07 22:00:00,57.7,54.5,29.89,West,260,7.0,7.0,89,0.00,,,0.00,0,Wunderground v.1.15,2013-07-08 05:00:00,
2013-07-07 22:10:00,57.6,54.7,29.90,WSW,247,7.0,7.0,90,0.00,,,0.00,0,Wunderground v.1.15,2013-07-08 05:10:00,
2013-07-07 22:20:00,57.5,54.6,29.90,West,264,8.0,8.0,90,0.00,,,0.00,0,Wunderground v.1.15,2013-07-08 05:20:00,
2013-07-07 22:30:00,57.2,54.3,29.90,WSW,242,9.0,9.0,90,0.00,,,0.00,0,Wunderground v.1.15,2013-07-08 05:30:00,
2013-07-07 22:40:00,57.1,54.2,29.90,West,260,11.0,11.0,90,0.00,,,0.00,0,Wunderground v.1.15,2013-07-08 05:40:00,
2013-07-07 22:50:00,57.1,54.5,29.90,WSW,244,7.0,7.0,91,0.00,,,0.00,0,Wunderground v.1.15,2013-07-08 05:50:00,
2013-07-07 23:00:00,57.1,54.5,29.90,WSW,255,9.0,10.0,91,0.00,,,0.00,0,Wunderground v.1.15,2013-07-08 06:00:00,
2013-07-07 23:10:00,57.1,54.5,29.90,West,277,8.0,11.0,91,0.00,,,0.00,0,Wunderground v.1.15,2013-07-08 06:10:00,
2013-07-07 23:15:00,57.1,54.5,29.90,West,266,8.0,11.0,91,0.00,,,0.00,0,Wunderground v.1.15,2013-07-08 06:15:00,
2013-07-07 23:25:00,57.1,54.5,29.91,WSW,243,8.0,9.0,91,0.00,,,0.00,0,Wunderground v.1.15,2013-07-08 06:25:00,
2013-07-07 23:35:00,56.7,54.1,29.91,West,260,8.0,11.0,91,0.00,,,0.00,0,Wunderground v.1.15,2013-07-08 06:35:00,
2013-07-07 23:40:00,56.5,53.9,29.91,West,269,9.0,9.0,91,0.00,,,0.00,0,Wunderground v.1.15,2013-07-08 06:40:00,
2013-07-07 23:50:00,56.6,54.0,29.91,West,275,9.0,9.0,91,0.00,,,0.00,0,Wunderground v.1.15,2013-07-08 06:50:00,
2013-07-07 23:55:00,56.6,54.3,29.91,West,267,8.0,9.0,92,0.00,,,0.00,0,Wunderground v.1.15,2013-07-08 06:55:00,